map of MEA home
Great Circle Mapper logo
MEA - Airport
Location
City:  Macaé, Rio de Janeiro, Brazil
ICAO:SBME
IATA:MEA

Details
Type:Airport (Aerodrome, Airfield)
Latitude:22°20'35"S (-22.343030)
Longitude:41°45'58"W (-41.766032)
Datum:WGS 1984
Elevation:8 ft (2 m)
Variation:23.15°W (WMM2015 magnetic declination)
-0.09° annual change
Runways:1
Longest:3937 × 98 ft (1200 × 30 m), paved

Time
Time Zone:UTC-3 (DST-2)
Local Time:

Weather
METAR:SBME 291000Z 26004KT 8000 -RA BKN017 OVC080 18/17 Q1018
TAF:SBME 290300Z 2906/2918 27005KT 7000 BKN017 TN18/2908Z TX23/2918Z
BECMG 2906/2908 22005KT
BECMG 2912/2914 18010KT
BECMG 2915/291714010KT
RMK PGW

Related Locations
Nearby:
Farthest:IWO: 12181 mi / 19604 km
Iwo Jima [Iwo Jima AB], Iwo Jima Island, 13, JP

Find:

   beyond  
but within

Other Information
Maps:
NOTAMs:
Links:
Sources:

  
flag of Brazil
flag of Rio de Janeiro
  

Sectional Chart

Flight Planning
at skyvector.com

Satellite Image

Google Maps Satellite view

 

Copyright © 2004-2016 Karl L. Swartz. All rights reserved.
The Great Circle Mapper name and logo are trademarks of the Great Circle Mapper.
All other trademarks mentioned herein belong to their respective owners.
Please see credits for attibutions and further copyright information.

  Follow gcmap on Facebook Follow gcmap on Twitter Follow gcmap on Google+ GCmap on LinkedIn

hCard Microformat

Geo Microformat